Location: Ariel
(45.9570°N, 122.5700°W)
Time: 09:56:28
(UTC-07:00)

deb Explorer IX - Visible Passes

Search period start: 17 July 2019 00:00
Search period end: 27 July 2019 00:00
Orbit: 539 x 1112 km, 38.8° (Epoch: 17 July)

Date Brightness Start Highest point End Pass type
(mag) Time Alt. Az. Time Alt. Az. Time Alt. Az.
18 Jul ? 03:39:05 10° SSE 03:39:17 10° SSE 03:39:59 10° SE visible
19 Jul ? 03:18:11 10° SE 03:18:11 10° SE 03:18:29 10° SE visible
19 Jul ? 05:00:02 10° SW 05:03:25 25° SSE 05:06:49 10° ESE visible
20 Jul ? 04:38:38 12° SW 04:41:35 26° S 04:44:59 10° ESE visible
21 Jul ? 04:17:44 18° SSW 04:19:46 26° S 04:23:10 10° ESE visible
22 Jul ? 03:56:51 23° SSW 03:57:56 27° S 04:01:22 10° ESE visible
23 Jul ? 03:35:57 27° S 03:36:06 27° S 03:39:35 10° ESE visible
24 Jul ? 03:15:07 26° SSE 03:15:07 26° SSE 03:17:48 10° ESE visible
24 Jul ? 04:56:53 10° WSW 05:00:29 28° S 05:03:59 10° SE visible
25 Jul ? 02:54:20 20° SE 02:54:20 20° SE 02:56:03 10° ESE visible
25 Jul ? 04:35:43 14° WSW 04:38:39 28° S 04:42:09 10° SE visible
26 Jul ? 02:33:40 13° ESE 02:33:40 13° ESE 02:34:17 10° ESE visible
26 Jul ? 04:15:03 21° SW 04:16:48 28° S 04:20:20 10° SE visible
